[[{"header":{"parameterUnit":"m.s-1","parameterCategory":1,"la1":30.2991,"la2":30.254,"lo1":-89.0895,"lo2":-89.0444,"dy":0.0017,"dx":0.0017,"nx":28,"ny":28,"refTime":"2024-12-20T09:00:00:Z","depth":0,"parameterNumber":2,"parameterNumberName":"U-component_of_WINDS"},"data":[0,0,0,0,0,0,0,0,0,0,0,0,0,0,0,0,0,0,0,0,0,0,0,0,0,0,0,0,0,0,0,0,0,0,0,0,0,0,0,0,0,0,0,0,0,0,0,0,0,0,0,0,0,0,0,0,0,0,0.7045,0.7045,0,0.7061,0.7061,0.7061,0.7033,0.7032,0.7031,0.703,0.7047,0.7048,0.7049,0,0,0,0,0,0,0,0,0,0,0,0,0,0.6991,0.6992,0.7045,0.7045,0.7045,0.7061,0.7061,0.7061,0.7033,0.7032,0.7031,0.7029,0.7046,0.7048,0.7049,0,0,0,0,0,0,0,0,0,0,0,0,0,0.7011,0.6992,0.7045,0.7033,0.7032,0.706,0.7061,0.7061,0.7033,0.7032,0.703,0.7029,0.7046,0.7048,0.705,0.709,0,0,0.7056,0.7057,0,0,0,0,0,0,0,0,0.701,0.7013,0.7034,0.7034,0.7033,0.7043,0.7048,0.7071,0.7033,0.7033,0.703,0.7028,0.7047,0.7049,0.7055,0.7091,0.7092,0.7056,0.7057,0.7058,0.7058,0,0,0,0,0,0,0,0.7009,0.7013,0.7051,0.7035,0.7034,0.7027,0.7028,0.7052,0.7048,0.7033,0.7031,0.7033,0.7046,0.7053,0.7055,0.7092,0.7056,0.7058,0.7059,0.706,0.7165,0.7166,0,0,0,0,0,0,0.7009,0.7012,0.705,0.7051,0.7018,0.7029,0.7031,0.7041,0.7047,0.7047,0.7034,0.7032,0.705,0.7053,0.7055,0.7105,0.7058,0.706,0.7061,0.7163,0.7165,0.7167,0,0,0,0,0,0,0.7008,0.7013,0.705,0.7031,0.7035,0.7032,0.7044,0.7042,0.7049,0.7048,0.7047,0.7042,0.7049,0.7052,0.7082,0.7105,0.7061,0.7063,0.7161,0.7164,0.7166,0.7204,0,0,0,0,0,0,0.7006,0.7012,0.7028,0.7031,0.7036,0.7076,0.7045,0.7044,0.7053,0.7049,0.7055,0.7055,0.7048,0.7079,0.7084,0.7107,0.7064,0.7159,0.7162,0.7165,0.7201,0.7207,0.7213,0,0,0,0,0,0.7004,0.7037,0.7028,0.7033,0.7055,0.7078,0.708,0.7072,0.7055,0.707,0.707,0.7055,0.7101,0.7083,0.7088,0.7112,0.7158,0.7161,0.7165,0.7198,0.7206,0.7213,0,0,0,0,0,0,0.7036,0.7038,0.7028,0.7063,0.707,0.7073,0.7092,0.7081,0.7093,0.709,0.7079,0.708,0.7113,0.7115,0.7094,0.7152,0.7127,0.7132,0.715,0.7158,0.7164,0.7163,0.7066,0,0,0,0,0,0.7047,0.7065,0.7065,0.7096,0.7101,0.7096,0.7105,0.7098,0.7106,0.7109,0.711,0.7118,0.7135,0.7146,0.7161,0.72,0.7202,0.7219,0.7225,0.723,0.7235,0.7258,0.7266,0.7179,0.7179,0.7178,0,0,0.707,0.7073,0.7085,0.7103,0.7108,0.7127,0.7099,0.712,0.7135,0.7112,0.7141,0.7142,0.715,0.7185,0.7201,0.7188,0.726,0.7235,0.7239,0.7241,0.7262,0.7271,0.7278,0.7181,0.7181,0.718,0,0,0.7123,0.7126,0.7153,0.7159,0.7167,0.7163,0.717,0.7174,0.7175,0.7203,0.7187,0.7204,0.7232,0.7239,0.7247,0.7303,0.729,0.7308,0.7341,0.7363,0.737,0.7376,0.7397,0.7405,0.7312,0.7312,0.7312,0,0.7151,0.7179,0.7168,0.7191,0.72,0.718,0.7208,0.7214,0.7227,0.7234,0.7219,0.7255,0.7259,0.7296,0.731,0.7316,0.7324,0.7308,0.7369,0.7375,0.7381,0.7402,0.741,0.7314,0.7314,0.7314,0.7314,0,0.7214,0.7234,0.7255,0.7268,0.7279,0.7304,0.7298,0.731,0.7302,0.73,0.733,0.7334,0.7351,0.7358,0.735,0.7395,0.7387,0.7371,0.7346,0.7392,0.7411,0.7419,0.7318,0.7317,0.7316,0.7316,0,0,0.7288,0.7295,0.7303,0.7309,0.7317,0.7332,0.7357,0.7373,0.7384,0.7393,0.7415,0.744,0.7425,0.7433,0.7426,0.7445,0.7491,0.7427,0.7427,0.744,0.7543,0.7557,0.7566,0.7482,0.7483,0.7485,0.7543,0,0.7341,0.7384,0.7375,0.7418,0.7437,0.7418,0.744,0.7447,0.7446,0.7463,0.7461,0.748,0.7458,0.7464,0.7482,0.7482,0.7512,0.7477,0.7503,0.7504,0.7504,0.7575,0.759,0.7644,0.755,0.7551,0.7552,0,0.741,0.7422,0.7467,0.7472,0.748,0.75,0.7514,0.753,0.7538,0.7536,0.7546,0.7535,0.756,0.7533,0.7568,0.7545,0.7555,0.7557,0.7558,0.7562,0.7533,0.7583,0.7661,0.7671,0.7564,0.7563,0.7562,0,0.7462,0.7489,0.752,0.7526,0.7532,0.7547,0.755,0.7557,0.7568,0.758,0.7587,0.7602,0.7611,0.7624,0.7618,0.7598,0.7655,0.7627,0.7655,0.7656,0.767,0.7669,0.7753,0.7673,0.7672,0.7672,0.7672,0,0.7524,0.7553,0.7544,0.7563,0.7594,0.7584,0.7615,0.7616,0.7623,0.7642,0.7626,0.7645,0.7634,0.7652,0.7647,0.7679,0.7682,0.7682,0.7681,0.7685,0.7685,0.7693,0.769,0.7675,0.7674,0.7674,0.7673,0,0.7588,0.7583,0.7616,0.7619,0.7621,0.7644,0.7648,0.7666,0.7663,0.7688,0.7694,0.769,0.7711,0.7705,0.7727,0.7724,0.7764,0.7757,0.7762,0.7761,0.7791,0.7789,0.7884,0.7897,0.7806,0.7807,0.7808,0,0.763,0.7651,0.7657,0.7669,0.7674,0.7693,0.7704,0.7694,0.7706,0.7718,0.7735,0.7754,0.7769,0.7802,0.7802,0.7819,0.7814,0.7846,0.7816,0.782,0.7817,0.7817,0.782,0.7852,0.7853,0.7854,0.7855,0,0.7704,0.77,0.7716,0.7732,0.7746,0.7758,0.7768,0.7779,0.777,0.7784,0.7805,0.7817,0.784,0.7859,0.7875,0.7879,0.7867,0.7864,0.7872,0.7877,0.788,0.7881,0.778,0.7862,0.7862,0.7861,0.7861,0.786,0.7759,0.7778,0.7786,0.7805,0.7811,0.7822,0.7839,0.7839,0.7856,0.7875,0.7868,0.7892,0.79,0.792,0.7926,0.7945,0.7933,0.7944,0.7947,0.7951,0.7956,0.7875,0.7948,0.7948,0.7947,0.7947,0.7947,0,0.7835,0.7839,0.7856,0.7871,0.7886,0.7872,0.7883,0.7897,0.7919,0.7927,0.7942,0.7967,0.7986,0.7987,0.8005,0.8021,0.8016,0.8026,0.8026,0.8028,0.7964,0.7957,0.803,0.803,0.803,0.803,0.803,0.803,0.7876,0.7908,0.7905,0.794,0.7944,0.7968,0.7975,0.7985,0.7992,0.802,0.8036,0.8037,0.8043,0.8061,0.8079,0.8079,0.8087,0.81,0.8098,0.804,0.8032,0.8024,0.8017,0.8102,0.8102,0.816,0.8161,0.8161]},{"header":{"parameterUnit":"m.s-1","parameterCategory":1,"la1":30.2991,"la2":30.254,"lo1":-89.0895,"lo2":-89.0444,"dy":0.0017,"dx":0.0017,"nx":28,"ny":28,"refTime":"2024-12-20T09:00:00:Z","depth":0,"parameterNumber":3,"parameterNumberName":"V-component_of_WINDS"},"data":[0,0,0,0,0,0,0,0,0,0,0,0,0,0,0,0,0,0,0,0,0,0,0,0,0,0,0,0,0,0,0,0,0,0,0,0,0,0,0,0,0,0,0,0,0,0,0,0,0,0,0,0,0,0,0,0,0,0,-3.0647,-3.0648,0,-3.0782,-3.0784,-3.0785,-3.079,-3.0789,-3.0787,-3.0786,-3.0925,-3.093,-3.0935,0,0,0,0,0,0,0,0,0,0,0,0,0,-3.0393,-3.0398,-3.0647,-3.0648,-3.065,-3.0782,-3.0784,-3.0786,-3.0791,-3.0789,-3.0787,-3.0785,-3.0923,-3.0929,-3.0936,0,0,0,0,0,0,0,0,0,0,0,0,0,-3.0513,-3.0399,-3.0646,-3.0668,-3.0672,-3.0782,-3.0784,-3.0786,-3.0791,-3.0789,-3.0786,-3.0784,-3.0921,-3.0929,-3.0937,-3.1034,0,0,-3.0961,-3.0964,0,0,0,0,0,0,0,0,-3.0507,-3.0523,-3.0663,-3.0667,-3.0671,-3.0767,-3.0746,-3.0869,-3.0792,-3.0746,-3.0786,-3.0783,-3.0874,-3.0886,-3.0917,-3.104,-3.1046,-3.0961,-3.0966,-3.0969,-3.0972,0,0,0,0,0,0,0,-3.0498,-3.0517,-3.07,-3.0665,-3.067,-3.0672,-3.0686,-3.0769,-3.0822,-3.075,-3.075,-3.0766,-3.0876,-3.0909,-3.092,-3.1048,-3.0961,-3.0968,-3.0973,-3.0976,-3.126,-3.1263,0,0,0,0,0,0,-3.0485,-3.051,-3.0696,-3.0704,-3.0581,-3.0678,-3.0695,-3.0739,-3.0821,-3.0832,-3.0768,-3.0766,-3.0897,-3.0911,-3.0925,-3.1045,-3.0969,-3.0977,-3.0981,-3.1257,-3.1261,-3.1264,0,0,0,0,0,0,-3.048,-3.0502,-3.0691,-3.0608,-3.0632,-3.0685,-3.0735,-3.0743,-3.0776,-3.0835,-3.0845,-3.0792,-3.0896,-3.0914,-3.1007,-3.105,-3.098,-3.0987,-3.1254,-3.1258,-3.1262,-3.1285,0,0,0,0,0,0,-3.0473,-3.05,-3.0537,-3.0608,-3.0636,-3.077,-3.0738,-3.0747,-3.0789,-3.0788,-3.086,-3.087,-3.0895,-3.0995,-3.1015,-3.1059,-3.0993,-3.125,-3.1256,-3.1261,-3.1281,-3.129,-3.1298,0,0,0,0,0,-3.0464,-3.0538,-3.0539,-3.0561,-3.0684,-3.0772,-3.0788,-3.0815,-3.0793,-3.0831,-3.0869,-3.0868,-3.1042,-3.1005,-3.1027,-3.1074,-3.1248,-3.1254,-3.126,-3.1277,-3.1288,-3.1297,0,0,0,0,0,0,-3.0471,-3.0548,-3.055,-3.0649,-3.0704,-3.0773,-3.0822,-3.0826,-3.0888,-3.0884,-3.0915,-3.0932,-3.1024,-3.1059,-3.1016,-3.1174,-3.1142,-3.1153,-3.1148,-3.1158,-3.1167,-3.1156,-3.1,0,0,0,0,0,-3.0484,-3.0549,-3.0613,-3.0695,-3.0723,-3.0768,-3.0807,-3.0823,-3.0882,-3.0905,-3.095,-3.1007,-3.1075,-3.1118,-3.1184,-3.1286,-3.1303,-3.133,-3.1338,-3.1345,-3.1354,-3.1412,-3.1425,-3.1285,-3.1285,-3.1284,0,0,-3.0512,-3.0562,-3.0601,-3.0698,-3.0742,-3.081,-3.0787,-3.0859,-3.091,-3.0916,-3.1007,-3.1042,-3.1108,-3.1206,-3.1251,-3.1237,-3.1396,-3.1353,-3.1358,-3.1363,-3.1419,-3.1433,-3.1444,-3.1289,-3.1288,-3.1288,0,0,-3.0597,-3.0641,-3.0715,-3.076,-3.0828,-3.0857,-3.0875,-3.0944,-3.0967,-3.1059,-3.1065,-3.1126,-3.1242,-3.1288,-3.1327,-3.1431,-3.1433,-3.1452,-3.1495,-3.1551,-3.1562,-3.1572,-3.161,-3.1623,-3.1461,-3.1461,-3.1461,0,-3.0623,-3.0724,-3.0752,-3.0824,-3.0867,-3.0876,-3.0951,-3.0994,-3.1079,-3.1109,-3.1092,-3.1238,-3.1283,-3.1392,-3.1418,-3.1449,-3.1471,-3.1444,-3.1558,-3.1568,-3.1578,-3.1614,-3.1629,-3.1463,-3.1463,-3.1463,-3.1462,0,-3.0753,-3.0824,-3.0875,-3.0958,-3.1006,-3.108,-3.1119,-3.1165,-3.1177,-3.1209,-3.1302,-3.1357,-3.1434,-3.1461,-3.1473,-3.1573,-3.1562,-3.1551,-3.1521,-3.1593,-3.1628,-3.1642,-3.1466,-3.1465,-3.1464,-3.1464,0,0,-3.0846,-3.0944,-3.0962,-3.1,-3.1076,-3.1131,-3.1206,-3.1281,-3.132,-3.1379,-3.1443,-3.1541,-3.1532,-3.1576,-3.1594,-3.1643,-3.1723,-3.1626,-3.1628,-3.1643,-3.1837,-3.1845,-3.1861,-3.1725,-3.1727,-3.173,-3.1832,0,-3.094,-3.1072,-3.1099,-3.1213,-3.1279,-3.1289,-3.1354,-3.1408,-3.144,-3.1501,-3.1536,-3.1606,-3.1588,-3.1615,-3.1664,-3.1703,-3.1763,-3.1696,-3.1785,-3.1787,-3.1768,-3.1879,-3.1887,-3.1981,-3.1846,-3.1848,-3.185,0,-3.1067,-3.1129,-3.125,-3.1318,-3.1347,-3.1405,-3.1476,-3.1534,-3.1596,-3.1616,-3.1666,-3.1679,-3.1757,-3.1723,-3.1832,-3.1786,-3.1824,-3.1849,-3.1853,-3.1862,-3.1823,-3.1891,-3.2012,-3.2026,-3.1871,-3.1869,-3.1868,0,-3.1123,-3.1237,-3.1325,-3.1357,-3.1438,-3.1479,-3.1515,-3.1574,-3.1618,-3.1681,-3.171,-3.1781,-3.182,-3.1875,-3.1908,-3.188,-3.2015,-3.1982,-3.2034,-3.2033,-3.2062,-3.2059,-3.219,-3.2086,-3.2085,-3.2085,-3.2085,0,-3.1225,-3.1299,-3.1351,-3.1405,-3.1488,-3.1519,-3.1601,-3.1636,-3.1689,-3.1751,-3.1764,-3.1821,-3.186,-3.1923,-3.1949,-3.2036,-3.2053,-3.2072,-3.2078,-3.2071,-3.2069,-3.2096,-3.2091,-3.2089,-3.2088,-3.2087,-3.2087,0,-3.1302,-3.134,-3.1436,-3.1505,-3.1524,-3.1583,-3.1642,-3.1695,-3.1727,-3.1805,-3.1825,-3.1876,-3.1951,-3.1989,-3.2082,-3.21,-3.2198,-3.22,-3.2177,-3.2179,-3.2229,-3.2224,-3.2381,-3.2404,-3.2284,-3.2286,-3.2286,0,-3.1365,-3.1422,-3.1497,-3.1539,-3.1576,-3.1643,-3.1688,-3.1721,-3.1768,-3.1843,-3.1887,-3.1963,-3.2025,-3.2145,-3.2191,-3.2263,-3.2267,-3.2317,-3.2277,-3.2269,-3.2268,-3.2264,-3.2271,-3.2324,-3.2325,-3.2326,-3.2327,0,-3.1472,-3.1488,-3.1552,-3.1624,-3.1677,-3.1735,-3.1791,-3.1825,-3.1868,-3.1919,-3.1996,-3.2045,-3.2141,-3.2216,-3.2292,-3.2329,-3.2336,-3.2339,-3.2355,-3.2348,-3.2333,-3.2343,-3.2196,-3.2335,-3.2334,-3.2334,-3.2333,-3.2333,-3.1544,-3.1596,-3.1657,-3.1728,-3.1775,-3.1828,-3.1881,-3.192,-3.1985,-3.2065,-3.2081,-3.2163,-3.2225,-3.2327,-3.2367,-3.2432,-3.2421,-3.2443,-3.2449,-3.2455,-3.2457,-3.2322,-3.2446,-3.2445,-3.2445,-3.2445,-3.2445,0,-3.1653,-3.1693,-3.1758,-3.1838,-3.1894,-3.1895,-3.1958,-3.2006,-3.2077,-3.2134,-3.2195,-3.2284,-3.2358,-3.241,-3.2484,-3.2527,-3.2532,-3.2545,-3.2543,-3.2551,-3.2462,-3.2441,-3.254,-3.254,-3.254,-3.254,-3.254,-3.254,-3.1716,-3.1803,-3.1827,-3.1938,-3.1978,-3.2058,-3.2094,-3.2143,-3.2189,-3.2287,-3.2349,-3.2382,-3.2437,-3.2516,-3.2584,-3.2597,-3.2625,-3.2638,-3.2652,-3.2568,-3.2558,-3.2548,-3.2529,-3.2644,-3.2644,-3.2736,-3.2737,-3.2737]}]]